Wind_Speed
29 29 29 29 29 28 27 26 25 24 22 21 20 20 19 19 20 20 20 20 20 20 20 20 20 20 20 20 20 20 20 20 20 20 20 20 20 20 20 20 19 19 18 18 18 19 20 21 23 24 25 26
30 30 30 29 29 28 27 25 24 22 21 20 19 19 19 19 20 20 20 20 20 20 20 20 20 20 20 20 20 21 21 20 20 19 19 19 19 19 19 19 19 19 18 18 18 18 19 20 22 23 25 26
30 30 30 29 28 27 26 25 23 22 21 20 19 19 19 20 20 20 20 20 20 20 20 20 20 21 21 21 21 21 21 21 21 20 20 20 20 20 20 20 20 20 19 19 19 19 20 20 21 22 24 26
31 30 30 29 28 27 26 24 23 22 21 20 20 20 20 20 21 21 21 21 21 21 22 22 22 22 22 22 22 22 23 22 22 21 22 21 21 21 21 21 21 22 22 22 22 22 22 22 23 23 24 25
31 30 29 28 28 27 25 24 23 22 21 20 20 20 20 21 22 22 23 23 23 23 23 23 23 24 24 24 24 24 24 23 23 23 23 23 23 23 23 23 23 24 24 25 25 25 25 25 25 26 26 26
30 30 29 28 27 26 25 24 23 22 21 21 21 21 22 23 24 24 25 24 25 25 24 24 24 25 25 25 25 25 25 24 24 24 25 25 25 25 25 26 26 26 26 27 27 27 27 28 28 28 28 29
30 30 29 28 27 26 25 24 23 23 23 23 23 24 25 26 26 26 26 25 26 26 26 26 25 26 26 26 26 26 26 26 26 26 26 27 27 27 27 28 28 28 28 28 29 29 29 29 29 29 29 30
30 30 29 27 27 26 26 25 25 24 24 25 25 26 26 27 26 26 27 26 26 27 27 27 27 27 28 28 28 28 28 27 27 28 28 29 29 29 29 30 30 30 30 30 30 30 31 31 30 30 30 31
30 29 28 28 27 27 27 26 25 26 26 26 26 27 27 27 27 27 27 27 27 28 28 28 28 29 29 30 29 29 29 29 29 30 30 30 31 31 31 31 31 32 32 32 33 33 33 33 33 33 33 33
30 29 29 29 28 28 27 26 26 27 27 27 27 27 27 27 27 27 28 28 28 28 29 29 30 30 31 31 31 31 31 31 31 31 32 32 32 32 32 32 32 33 33 34 35 35 36 36 36 37 37 37
31 30 30 29 29 29 28 28 28 28 28 28 27 27 27 27 28 28 29 29 29 30 30 31 31 32 32 32 32 33 33 33 33 33 33 33 32 32 32 33 33 33 34 35 36 37 38 38 38 39 39 39
32 31 31 30 30 29 28 29 29 29 29 29 28 28 27 28 29 29 30 31 31 31 32 32 32 32 33 33 34 34 34 34 34 34 34 33 33 33 33 33 33 34 34 35 36 37 38 38 39 39 39 40
33 32 32 31 30 29 29 29 29 30 30 30 30 29 29 29 30 31 32 32 32 33 33 33 33 33 34 34 35 35 35 35 34 34 35 34 34 33 33 34 34 34 34 35 35 36 36 37 38 39 39 39
34 33 32 32 31 30 30 31 31 31 32 32 32 31 31 31 32 32 33 33 33 34 34 34 34 34 35 35 36 36 35 35 35 35 35 35 34 34 34 34 34 34 34 34 34 34 35 36 37 38 39 39
34 34 33 32 32 32 32 32 32 33 33 34 33 33 33 32 33 33 34 34 34 34 34 34 34 35 35 36 36 36 36 36 36 36 36 36 35 35 35 35 35 35 35 35 35 35 35 35 36 38 38 39
35 35 34 34 34 34 34 34 34 34 34 34 34 34 34 34 34 34 34 34 34 34 34 34 35 35 35 36 37 37 37 37 37 37 37 36 36 35 35 35 35 36 36 36 37 37 37 37 38 38 38 38
36 35 35 35 34 34 34 34 34 34 34 35 35 34 34 34 34 35 35 35 35 35 35 35 35 35 36 36 37 37 37 38 37 37 37 37 37 37 36 36 36 37 37 37 38 39 39 39 40 40 39 39
35 35 35 34 34 34 34 34 34 34 34 34 35 35 35 35 35 35 35 35 35 35 35 35 35 36 36 37 37 37 38 38 38 38 38 38 38 38 38 38 38 38 38 39 39 40 41 41 41 41 41 41
34 34 34 34 34 34 34 34 34 34 34 34 35 35 35 35 36 36 36 35 35 35 36 36 36 37 37 38 37 38 38 39 39 39 40 40 40 40 40 40 40 40 40 40 41 42 42 42 43 43 43 43
33 33 33 33 33 33 34 34 34 34 34 35 35 36 36 36 36 37 36 36 36 36 37 37 37 38 38 38 38 39 39 40 40 41 41 42 42 42 42 42 42 42 42 42 42 43 43 43 44 45 45 45
32 32 33 33 33 34 34 34 34 34 35 35 36 36 36 36 37 37 37 37 37 37 37 38 38 39 39 39 39 40 41 41 42 43 43 44 44 44 44 44 44 43 43 44 44 44 45 45 45 46 47 46
32 32 33 33 34 34 34 34 34 35 35 36 36 36 37 37 38 38 38 38 38 38 39 39 39 40 40 41 41 42 43 43 44 45 45 46 46 46 46 45 45 45 45 45 46 46 46 46 47 47 47 47
32 32 33 33 34 34 34 35 35 36 36 36 37 38 38 38 39 39 39 39 39 39 40 40 41 42 42 43 44 44 45 46 46 47 47 48 48 47 46 46 47 47 47 47 47 47 47 48 47 47 47 47
32 32 33 33 34 34 35 36 36 37 38 38 38 39 39 39 39 39 39 40 40 40 41 42 43 43 44 45 46 47 48 48 49 49 50 49 49 48 47 48 48 48 49 49 48 48 49 49 48 47 46 45
32 33 33 33 34 35 36 37 38 38 38 39 38 39 40 39 39 40 40 41 41 42 43 44 45 46 47 48 49 50 51 51 52 52 51 50 49 49 49 49 49 50 51 51 50 50 50 49 48 47 46 45
33 33 34 35 35 36 37 38 39 40 40 41 40 41 42 42 42 43 43 44 44 45 46 47 48 49 50 51 52 53 53 53 53 53 52 51 51 51 51 51 51 52 52 53 52 51 51 50 49 47 47 47
34 34 35 36 36 37 38 39 40 41 42 43 43 43 44 45 45 46 46 47 48 49 49 50 51 52 53 54 54 55 54 54 54 53 53 53 52 52 52 53 53 53 53 54 53 52 52 51 49 48 47 47
34 35 36 37 37 38 39 41 42 43 43 44 45 45 46 47 48 49 49 50 51 51 52 52 53 54 54 54 55 55 54 54 54 53 53 53 53 54 54 54 54 54 54 54 54 53 52 51 50 49 47 47
35 36 37 38 38 39 40 41 42 43 44 44 45 45 46 47 48 49 49 50 50 51 51 52 52 53 53 53 53 53 54 54 54 54 54 54 55 55 55 55 55 55 54 54 53 53 52 51 50 49 48 48
37 38 39 39 39 40 40 40 41 42 42 43 43 44 44 45 45 46 47 47 48 48 49 49 50 50 51 51 52 52 53 53 54 54 55 55 55 55 55 55 56 55 54 54 53 53 52 51 50 50 49 49
39 39 40 40 41 41 41 42 42 42 42 43 43 43 43 44 44 44 45 46 47 47 48 48 49 49 50 51 51 52 53 53 54 54 55 55 55 55 55 55 55 55 54 53 53 52 52 52 51 51 50 49
Wind_Direction
272 272 273 273 274 274 275 275 276 277 279 280 280 279 277 274 272 269 268 267 267 267 268 268 268 269 269 269 270 271 271 271 272 272 273 273 274 274 275 276 276 277 277 277 277 275 274 274 275 276 277 277
273 273 274 274 275 276 276 277 278 280 281 281 279 277 274 271 268 266 265 264 264 265 266 267 267 268 269 269 270 270 270 270 270 271 272 273 275 276 277 279 280 281 281 281 281 280 279 277 276 276 276 276
274 275 275 276 276 277 277 278 279 280 280 280 277 275 272 269 266 265 264 263 263 264 265 266 267 268 269 269 269 269 270 270 270 271 272 273 275 276 278 279 281 283 284 285 286 285 285 283 281 280 278 277
275 275 276 276 276 277 278 279 280 281 281 280 277 274 271 268 266 264 264 263 263 264 265 266 268 269 270 269 269 270 270 271 271 270 271 272 273 274 276 277 280 282 284 285 286 287 288 287 286 285 283 281
275 275 275 276 276 278 279 281 282 283 282 279 275 272 268 265 264 263 263 263 264 264 265 266 268 270 271 271 270 270 270 271 270 270 270 270 271 272 275 277 279 282 284 286 286 287 288 288 287 286 285 284
273 273 274 275 277 279 281 283 283 282 279 276 272 268 264 263 262 262 263 263 264 265 266 267 268 269 270 271 270 269 269 269 270 271 271 272 273 274 276 278 281 282 284 287 289 290 290 289 288 286 285 284
272 272 274 276 278 280 282 282 281 279 276 272 269 266 263 263 263 263 264 265 265 266 267 267 268 268 268 268 268 267 267 268 270 271 273 275 276 278 279 281 283 284 285 286 288 290 291 291 290 287 285 283
271 273 275 276 278 280 281 281 279 277 274 271 267 265 265 265 265 265 266 266 265 266 267 266 266 265 265 265 266 267 267 268 270 272 274 276 278 280 281 282 284 285 286 287 287 288 290 290 290 289 287 285
272 274 275 277 279 280 281 280 278 275 272 270 269 268 268 268 267 266 265 265 264 264 264 264 264 264 265 266 266 266 268 269 270 272 274 277 279 281 282 284 285 286 287 288 288 289 289 289 289 289 289 288
274 274 275 277 279 280 280 278 276 274 273 272 271 270 269 267 265 263 263 262 261 261 262 263 263 264 265 266 267 267 268 270 271 274 276 278 280 282 283 284 286 287 289 289 290 290 289 289 289 289 289 288
273 273 275 277 277 277 277 276 274 274 273 272 270 268 267 265 264 262 261 261 260 261 261 262 263 265 265 266 267 267 268 270 273 275 278 280 281 282 283 285 286 288 289 290 290 290 290 290 289 288 288 287
272 273 274 275 275 275 275 274 273 273 271 270 268 266 265 263 262 260 260 260 260 260 261 262 262 264 265 266 266 268 269 271 274 277 279 280 281 282 283 285 286 287 287 288 289 289 289 289 289 288 287 286
271 272 274 275 275 274 273 273 272 271 270 269 268 265 263 261 260 258 258 258 258 258 259 260 261 263 264 266 267 268 271 273 275 277 279 280 281 282 283 284 285 285 286 286 287 288 289 289 289 288 287 286
271 273 274 275 274 273 272 272 272 271 270 269 268 266 262 260 259 258 257 257 257 258 259 260 262 264 265 267 269 270 272 275 276 278 279 280 281 281 282 283 283 283 284 285 286 288 290 291 290 288 287 285
272 273 273 272 272 272 272 273 272 271 269 267 266 264 262 260 258 257 257 257 258 259 260 262 264 265 267 269 270 272 274 275 277 278 278 279 280 281 282 282 282 282 283 285 286 287 289 291 291 289 286 284
271 271 271 271 271 272 273 272 271 269 266 265 263 262 261 259 257 257 257 258 258 260 262 264 265 267 269 270 272 273 275 275 277 278 278 279 279 280 281 282 283 283 285 286 287 288 288 289 290 289 287 284
268 269 270 270 271 271 271 270 267 265 263 261 261 259 259 258 257 256 257 258 260 262 263 265 266 268 270 271 272 274 275 276 277 278 278 279 280 280 281 282 284 285 286 287 287 287 288 288 288 288 287 285
267 268 269 269 269 269 267 265 263 261 259 258 258 258 257 257 257 257 258 259 261 263 264 266 267 268 269 271 273 274 275 276 277 278 279 280 281 281 282 282 283 284 285 286 286 286 286 286 286 286 286 285
266 266 266 266 265 264 262 260 258 257 256 256 256 257 256 257 257 258 259 260 262 264 264 266 267 268 270 271 273 275 275 277 278 279 280 281 282 283 283 284 284 285 285 285 285 285 285 286 286 285 285 284
263 263 262 262 260 259 257 256 255 254 254 255 256 256 257 257 259 259 260 262 262 264 265 267 268 269 270 272 274 275 276 278 280 281 282 283 284 285 285 285 285 285 285 284 284 284 285 285 285 285 284 284
259 259 258 257 256 255 254 253 254 254 254 256 256 257 259 259 260 261 262 263 264 266 267 268 269 270 272 274 275 276 278 279 281 283 284 285 286 286 286 285 285 285 285 284 284 284 285 285 285 285 284 283
255 255 255 255 254 253 254 254 255 256 256 258 259 259 261 262 263 264 264 265 266 268 269 270 271 272 273 275 276 277 279 280 282 283 285 286 286 286 286 286 285 285 284 284 284 285 285 285 284 284 283 283
253 253 253 253 254 255 256 256 257 258 259 260 262 262 264 265 266 267 268 268 269 270 271 272 273 274 275 276 277 278 280 281 283 284 285 286 286 286 285 286 286 285 284 284 284 284 284 284 283 282 282 281
251 252 253 255 256 258 259 260 261 262 263 263 265 266 267 268 269 270 271 271 272 272 273 274 275 276 277 278 279 280 281 282 284 285 286 286 285 285 285 286 286 285 285 284 283 283 283 282 281 280 278 276
252 254 256 258 259 261 263 264 264 265 266 266 268 269 269 270 271 272 272 273 274 275 275 276 277 277 278 279 280 281 283 284 285 285 286 285 285 285 285 286 285 285 284 284 283 283 282 281 279 278 276 273
257 259 260 262 263 265 266 267 268 267 268 269 269 271 271 271 272 273 274 275 276 277 277 278 278 279 280 281 281 283 284 284 285 286 285 285 284 284 285 285 285 284 283 283 283 282 281 279 277 275 273 271
262 264 266 267 268 269 270 271 272 272 272 272 273 274 274 274 275 275 276 277 277 278 279 279 280 281 281 282 283 283 284 284 285 285 284 284 283 283 283 283 283 283 282 282 281 280 279 277 275 273 271 270
268 269 271 273 274 275 276 276 276 276 277 277 277 278 278 278 278 278 279 279 279 280 280 281 281 282 283 283 283 283 283 283 283 283 283 283 282 282 282 282 281 281 280 280 279 278 276 275 273 271 269 268
275 276 277 278 279 280 281 281 281 281 281 281 281 281 282 282 282 282 282 282 282 282 282 282 282 282 282 282 282 282 281 281 281 281 281 280 280 280 280 280 279 279 278 278 277 276 275 273 271 269 268 267
283 285 285 285 285 286 286 286 287 286 286 286 285 285 285 285 284 284 284 284 283 283 283 282 282 282 281 281 281 281 280 280 280 279 279 278 278 278 278 278 278 277 276 275 274 273 272 271 270 269 268 267
293 294 294 294 293 293 293 292 292 292 291 291 290 289 288 287 286 286 285 284 283 283 282 282 282 282 281 281 280 280 279 279 278 278 277 277 276 276 276 275 275 275 274 273 272 271 270 269 268 268 267 266
Height
3115 3115 3115 3116 3116 3116 3116 3116 3116 3115 3115 3115 3115 3115 3115 3115 3115 3115 3115 3114 3114 3114 3114 3114 3114 3114 3114 3114 3114 3114 3113 3113 3114 3113 3113 3113 3113 3113 3113 3113 3113 3114 3114 3115 3115 3115 3115 3115 3115 3114 3114 3114
3113 3113 3113 3113 3113 3113 3113 3113 3113 3112 3112 3112 3112 3112 3113 3113 3113 3112 3112 3112 3112 3112 3111 3111 3111 3111 3111 3111 3111 3111 3111 3111 3111 3111 3110 3110 3110 3110 3110 3110 3110 3111 3111 3112 3112 3113 3113 3113 3113 3112 3112 3111
3110 3110 3110 3110 3110 3110 3110 3110 3110 3110 3110 3110 3110 3110 3110 3110 3110 3109 3109 3109 3109 3109 3108 3108 3108 3108 3108 3108 3108 3108 3108 3108 3108 3108 3108 3108 3108 3107 3107 3107 3108 3108 3108 3109 3109 3110 3110 3110 3110 3110 3110 3109
3107 3107 3107 3107 3107 3107 3107 3107 3107 3107 3107 3107 3107 3107 3107 3106 3106 3106 3106 3106 3105 3105 3105 3105 3105 3105 3105 3105 3105 3105 3105 3105 3106 3106 3106 3106 3106 3105 3105 3105 3105 3105 3105 3106 3107 3107 3107 3108 3108 3108 3108 3107
3104 3104 3104 3104 3104 3104 3104 3104 3104 3104 3104 3104 3104 3104 3103 3103 3103 3102 3102 3102 3102 3102 3102 3102 3102 3102 3102 3102 3103 3103 3103 3103 3103 3103 3103 3103 3104 3104 3103 3103 3103 3103 3103 3103 3104 3104 3104 3105 3105 3105 3105 3105
3102 3102 3101 3102 3102 3102 3102 3101 3101 3101 3101 3101 3101 3100 3100 3099 3099 3099 3099 3099 3099 3099 3099 3100 3100 3100 3100 3100 3100 3100 3100 3101 3101 3101 3101 3101 3101 3101 3101 3101 3101 3101 3101 3101 3101 3101 3101 3101 3102 3102 3102 3102
3099 3099 3099 3099 3099 3099 3099 3099 3099 3098 3098 3098 3098 3097 3097 3097 3097 3097 3097 3097 3097 3097 3097 3097 3097 3097 3097 3097 3097 3098 3098 3098 3098 3099 3099 3099 3099 3099 3099 3099 3099 3098 3098 3098 3098 3098 3098 3098 3099 3099 3099 3099
3096 3096 3096 3097 3097 3097 3096 3096 3096 3096 3096 3095 3095 3095 3095 3095 3095 3095 3094 3095 3095 3095 3095 3095 3095 3095 3094 3095 3095 3095 3095 3096 3096 3096 3096 3096 3096 3096 3096 3096 3096 3096 3095 3095 3095 3095 3095 3095 3095 3096 3096 3096
3094 3094 3094 3094 3095 3094 3094 3094 3094 3093 3093 3093 3093 3093 3093 3093 3093 3092 3092 3092 3092 3092 3092 3092 3092 3092 3092 3092 3093 3093 3093 3093 3093 3093 3094 3094 3094 3093 3093 3093 3093 3093 3092 3092 3092 3092 3092 3092 3092 3092 3092 3093
3092 3092 3092 3092 3093 3092 3092 3092 3091 3090 3090 3090 3090 3090 3090 3090 3090 3090 3090 3090 3090 3089 3089 3089 3089 3089 3089 3089 3090 3090 3090 3090 3090 3090 3090 3090 3090 3090 3090 3090 3089 3089 3089 3088 3088 3088 3088 3088 3088 3088 3088 3088
3090 3090 3090 3090 3090 3089 3089 3089 3088 3088 3088 3088 3088 3088 3088 3087 3087 3087 3087 3087 3087 3086 3086 3086 3086 3086 3086 3086 3086 3086 3086 3086 3087 3087 3087 3087 3087 3087 3086 3086 3086 3086 3085 3085 3085 3085 3085 3085 3084 3084 3084 3084
3087 3088 3088 3087 3087 3087 3086 3086 3085 3085 3085 3084 3084 3085 3085 3084 3084 3084 3083 3083 3083 3083 3083 3083 3083 3083 3083 3083 3083 3083 3083 3083 3083 3083 3083 3083 3083 3082 3082 3082 3082 3082 3082 3081 3081 3081 3081 3081 3080 3080 3080 3080
3085 3085 3085 3084 3084 3084 3083 3083 3082 3082 3081 3081 3081 3081 3081 3081 3080 3080 3080 3080 3080 3080 3080 3080 3080 3080 3079 3079 3079 3079 3079 3079 3079 3079 3079 3079 3078 3078 3078 3078 3078 3078 3078 3078 3078 3077 3077 3077 3076 3076 3076 3075
3082 3082 3082 3081 3081 3081 3080 3079 3079 3079 3078 3078 3078 3078 3078 3078 3077 3077 3077 3077 3077 3077 3077 3076 3076 3076 3076 3075 3075 3075 3076 3075 3075 3075 3075 3075 3075 3074 3074 3074 3074 3074 3074 3074 3074 3073 3073 3073 3072 3072 3071 3071
3080 3079 3079 3078 3077 3077 3077 3076 3076 3075 3075 3075 3074 3074 3074 3074 3074 3074 3073 3073 3073 3073 3073 3073 3072 3072 3072 3072 3071 3071 3072 3072 3071 3071 3071 3071 3071 3071 3071 3071 3071 3070 3070 3070 3069 3069 3069 3069 3069 3068 3067 3067
3077 3076 3075 3075 3074 3074 3074 3073 3073 3072 3072 3071 3071 3071 3071 3071 3070 3070 3070 3070 3070 3070 3069 3069 3069 3068 3068 3068 3068 3068 3068 3068 3068 3067 3067 3067 3068 3068 3067 3067 3067 3066 3066 3066 3065 3064 3064 3065 3065 3064 3064 3063
3074 3073 3072 3072 3071 3071 3071 3070 3070 3069 3068 3068 3068 3067 3067 3067 3067 3067 3067 3067 3066 3066 3066 3065 3065 3065 3065 3064 3064 3064 3064 3064 3064 3064 3064 3064 3064 3064 3063 3063 3063 3062 3061 3061 3060 3060 3060 3060 3060 3060 3060 3059
3071 3070 3069 3069 3068 3068 3067 3067 3066 3066 3065 3065 3064 3064 3064 3064 3063 3063 3063 3063 3063 3062 3062 3062 3062 3061 3061 3061 3061 3060 3060 3060 3060 3060 3059 3059 3059 3059 3059 3058 3058 3057 3057 3056 3056 3056 3056 3056 3056 3055 3055 3055
3068 3067 3067 3066 3065 3065 3064 3064 3063 3063 3062 3062 3061 3061 3061 3060 3060 3060 3059 3059 3059 3059 3058 3058 3058 3057 3057 3057 3057 3056 3056 3056 3056 3055 3055 3055 3055 3054 3054 3053 3053 3052 3052 3052 3051 3051 3051 3051 3050 3050 3050 3050
3065 3064 3064 3063 3062 3062 3061 3061 3060 3060 3059 3058 3058 3057 3057 3057 3056 3056 3056 3055 3055 3055 3054 3054 3053 3053 3053 3053 3053 3052 3052 3052 3051 3051 3050 3050 3050 3049 3048 3048 3048 3047 3047 3046 3046 3046 3046 3046 3045 3045 3044 3044
3062 3062 3061 3060 3059 3059 3058 3058 3057 3056 3056 3055 3054 3054 3053 3053 3052 3052 3052 3051 3051 3050 3050 3049 3049 3048 3048 3048 3048 3047 3047 3047 3046 3046 3045 3045 3045 3044 3043 3043 3042 3042 3041 3041 3041 3040 3040 3040 3040 3039 3039 3039
3059 3059 3058 3057 3056 3056 3055 3054 3053 3052 3052 3051 3050 3050 3049 3048 3048 3047 3047 3047 3046 3046 3045 3045 3044 3044 3043 3043 3043 3043 3042 3042 3042 3041 3040 3040 3039 3039 3038 3037 3037 3036 3036 3035 3035 3035 3035 3035 3034 3034 3033 3033
3056 3055 3054 3054 3053 3052 3051 3050 3049 3048 3047 3047 3046 3045 3045 3044 3043 3043 3042 3042 3042 3041 3040 3040 3039 3039 3038 3038 3038 3038 3037 3037 3036 3036 3035 3035 3034 3033 3032 3032 3031 3030 3030 3030 3030 3030 3030 3029 3029 3028 3028 3027
3053 3052 3051 3050 3049 3048 3047 3046 3045 3044 3043 3043 3042 3041 3040 3040 3039 3038 3038 3037 3037 3036 3035 3035 3034 3034 3033 3033 3033 3032 3032 3031 3031 3030 3030 3029 3028 3027 3027 3026 3025 3024 3024 3023 3024 3024 3024 3023 3023 3023 3023 3022
3049 3048 3047 3046 3045 3044 3043 3042 3041 3040 3039 3038 3038 3036 3036 3035 3034 3034 3033 3032 3031 3031 3030 3029 3029 3029 3028 3028 3027 3027 3026 3026 3025 3024 3023 3023 3022 3021 3020 3020 3020 3019 3018 3017 3017 3017 3017 3017 3016 3016 3016 3016
3046 3045 3044 3043 3042 3040 3039 3038 3036 3036 3035 3034 3033 3032 3031 3030 3029 3029 3028 3027 3026 3025 3025 3024 3023 3023 3022 3022 3021 3021 3020 3019 3018 3018 3017 3016 3016 3015 3014 3014 3013 3013 3012 3011 3010 3010 3010 3010 3010 3010 3010 3010
3043 3042 3041 3039 3038 3037 3035 3034 3032 3031 3030 3029 3028 3027 3026 3025 3024 3023 3022 3021 3021 3020 3019 3018 3018 3017 3016 3016 3015 3014 3014 3013 3012 3011 3010 3010 3009 3009 3008 3008 3007 3007 3006 3005 3005 3004 3004 3003 3003 3004 3004 3003
3040 3038 3037 3036 3034 3033 3031 3030 3028 3027 3026 3025 3023 3022 3021 3020 3018 3018 3017 3016 3015 3014 3013 3012 3012 3011 3010 3009 3008 3008 3007 3006 3006 3005 3004 3003 3003 3002 3002 3001 3001 3000 3000 2999 2999 2998 2997 2997 2997 2997 2998 2997
3037 3035 3034 3032 3031 3029 3027 3026 3024 3023 3021 3020 3019 3017 3016 3015 3013 3012 3011 3010 3009 3008 3007 3006 3005 3005 3004 3003 3002 3001 3000 3000 2999 2998 2997 2997 2997 2996 2995 2994 2994 2994 2994 2993 2992 2991 2991 2991 2990 2990 2991 2991
3033 3032 3030 3028 3026 3025 3023 3021 3020 3018 3016 3015 3014 3012 3011 3009 3008 3007 3005 3004 3003 3002 3001 3000 2999 2998 2997 2996 2995 2994 2994 2993 2992 2991 2991 2990 2990 2989 2988 2987 2987 2987 2987 2987 2986 2985 2985 2985 2984 2984 2984 2984
3030 3028 3026 3024 3022 3020 3018 3016 3015 3013 3011 3010 3008 3007 3005 3004 3002 3001 3000 2998 2997 2996 2995 2994 2993 2991 2990 2990 2989 2988 2987 2986 2985 2985 2984 2983 2983 2982 2981 2981 2980 2980 2980 2980 2980 2979 2978 2978 2978 2978 2978 2978